Time,TemperatureF,DewpointF,PressureIn,WindDirection,WindDirectionDegrees,WindSpeedMPH,WindSpeedGustMPH,Humidity,HourlyPrecipIn,Conditions,Clouds,dailyrainin,SolarRadiationWatts/m^2,SoftwareType,DateUTC
2013-08-17 00:03:00,59.0,57.0,-100.00,North,10,1.0,4.0,94,0.00,,,0.00,0.000000,,2013-08-17 04:03:00,
2013-08-17 00:44:00,58.0,56.0,-100.00,NNE,32,2.0,5.0,92,0.00,,,0.00,0.000000,,2013-08-17 04:44:00,
2013-08-17 00:53:00,58.0,56.0,-100.00,NNE,32,2.0,5.0,92,0.00,,,0.00,0.000000,,2013-08-17 04:53:00,
2013-08-17 01:03:00,58.0,56.0,-100.00,NNE,32,2.0,5.0,92,0.00,,,0.00,0.000000,,2013-08-17 05:03:00,
2013-08-17 01:42:00,58.0,55.0,-100.00,NE,56,2.0,6.0,91,0.00,,,0.00,0.000000,,2013-08-17 05:42:00,
2013-08-17 01:52:00,58.0,55.0,-100.00,NE,56,2.0,6.0,91,0.00,,,0.00,0.000000,,2013-08-17 05:52:00,
2013-08-17 02:01:00,58.0,55.0,-100.00,NE,56,2.0,6.0,91,0.00,,,0.00,0.000000,,2013-08-17 06:01:00,
2013-08-17 02:42:00,58.0,54.0,-100.00,ENE,61,3.0,6.0,88,0.00,,,0.00,0.000000,,2013-08-17 06:42:00,
2013-08-17 02:52:00,58.0,54.0,-100.00,ENE,61,3.0,6.0,88,0.00,,,0.00,0.000000,,2013-08-17 06:52:00,
2013-08-17 03:01:00,58.0,54.0,-100.00,ENE,61,3.0,6.0,88,0.00,,,0.00,0.000000,,2013-08-17 07:01:00,
2013-08-17 03:42:00,57.0,54.0,-100.00,NNE,12,1.0,7.0,91,0.00,,,0.00,0.000000,,2013-08-17 07:42:00,
2013-08-17 03:52:00,57.0,54.0,-100.00,NNE,12,1.0,7.0,91,0.00,,,0.00,0.000000,,2013-08-17 07:52:00,
2013-08-17 04:02:00,57.0,54.0,-100.00,NNE,12,1.0,7.0,91,0.00,,,0.00,0.000000,,2013-08-17 08:02:00,
2013-08-17 04:42:00,57.0,53.0,-100.00,NNE,12,2.0,8.0,86,0.00,,,0.00,0.000000,,2013-08-17 08:42:00,
2013-08-17 04:52:00,57.0,53.0,-100.00,NNE,12,2.0,8.0,86,0.00,,,0.00,0.000000,,2013-08-17 08:52:00,
2013-08-17 05:02:00,57.0,53.0,-100.00,NNE,12,2.0,8.0,86,0.00,,,0.00,0.000000,,2013-08-17 09:02:00,
2013-08-17 05:43:00,56.0,52.0,-100.00,NE,39,2.0,5.0,87,0.00,,,0.00,0.000000,,2013-08-17 09:43:00,
2013-08-17 05:53:00,56.0,52.0,-100.00,NE,39,2.0,5.0,87,0.00,,,0.00,0.000000,,2013-08-17 09:53:00,
2013-08-17 06:03:00,56.0,52.0,-100.00,NE,39,2.0,5.0,87,0.00,,,0.00,0.000000,,2013-08-17 10:03:00,
2013-08-17 06:42:00,56.0,53.0,-100.00,ENE,65,3.0,4.0,89,0.00,,,0.00,0.000000,,2013-08-17 10:42:00,
2013-08-17 06:53:00,56.0,53.0,-100.00,ENE,65,3.0,4.0,89,0.00,,,0.00,0.000000,,2013-08-17 10:53:00,
2013-08-17 07:02:00,56.0,53.0,-100.00,ENE,65,3.0,4.0,89,0.00,,,0.00,0.000000,,2013-08-17 11:02:00,
2013-08-17 07:42:00,56.0,52.0,-100.00,NE,48,1.0,5.0,86,0.00,,,0.00,0.000000,,2013-08-17 11:42:00,
2013-08-17 07:52:00,56.0,52.0,-100.00,NE,48,1.0,5.0,86,0.00,,,0.00,0.000000,,2013-08-17 11:52:00,
2013-08-17 08:01:00,56.0,52.0,-100.00,NE,48,1.0,5.0,86,0.00,,,0.00,0.000000,,2013-08-17 12:01:00,
2013-08-17 08:42:00,56.0,52.0,-100.00,NNE,13,2.0,7.0,85,0.00,,,0.00,20.000000,,2013-08-17 12:42:00,
2013-08-17 08:52:00,56.0,52.0,-100.00,NNE,13,2.0,7.0,85,0.00,,,0.00,20.000000,,2013-08-17 12:52:00,
2013-08-17 09:02:00,56.0,52.0,-100.00,NNE,13,2.0,7.0,85,0.00,,,0.00,20.000000,,2013-08-17 13:02:00,
2013-08-17 09:42:00,59.0,51.0,-100.00,ENE,63,3.0,5.0,74,0.00,,,0.00,117.000000,,2013-08-17 13:42:00,
2013-08-17 09:52:00,59.0,51.0,-100.00,ENE,63,3.0,5.0,74,0.00,,,0.00,117.000000,,2013-08-17 13:52:00,
2013-08-17 10:01:00,59.0,51.0,-100.00,ENE,63,3.0,5.0,74,0.00,,,0.00,117.000000,,2013-08-17 14:01:00,
2013-08-17 10:42:00,60.0,53.0,-100.00,North,8,1.0,4.0,77,0.00,,,0.00,110.000000,,2013-08-17 14:42:00,
2013-08-17 10:52:00,60.0,53.0,-100.00,North,8,1.0,4.0,77,0.00,,,0.00,110.000000,,2013-08-17 14:52:00,
2013-08-17 11:01:00,60.0,53.0,-100.00,North,8,1.0,4.0,77,0.00,,,0.00,110.000000,,2013-08-17 15:01:00,
2013-08-17 11:44:00,63.0,53.0,-100.00,East,98,3.0,7.0,70,0.00,,,0.00,258.000000,,2013-08-17 15:44:00,
2013-08-17 11:54:00,63.0,53.0,-100.00,East,98,3.0,7.0,70,0.00,,,0.00,258.000000,,2013-08-17 15:54:00,
2013-08-17 12:03:00,63.0,53.0,-100.00,East,98,3.0,7.0,70,0.00,,,0.00,258.000000,,2013-08-17 16:03:00,
2013-08-17 12:42:00,63.0,55.0,-100.00,SSE,161,3.0,5.0,74,0.00,,,0.00,255.000000,,2013-08-17 16:42:00,
2013-08-17 12:53:00,63.0,55.0,-100.00,SSE,161,3.0,5.0,74,0.00,,,0.00,255.000000,,2013-08-17 16:53:00,
2013-08-17 13:02:00,63.0,55.0,-100.00,SSE,161,3.0,5.0,74,0.00,,,0.00,255.000000,,2013-08-17 17:02:00,
2013-08-17 13:42:00,63.0,56.0,-100.00,ESE,123,2.0,5.0,77,0.00,,,0.00,222.000000,,2013-08-17 17:42:00,
2013-08-17 13:52:00,63.0,56.0,-100.00,ESE,123,2.0,5.0,77,0.00,,,0.00,222.000000,,2013-08-17 17:52:00,
2013-08-17 14:02:00,63.0,56.0,-100.00,ESE,123,2.0,5.0,77,0.00,,,0.00,222.000000,,2013-08-17 18:02:00,
2013-08-17 14:21:00,63.0,57.0,-100.00,East,85,2.0,6.0,81,0.00,,,0.00,204.000000,,2013-08-17 18:21:00,
2013-08-17 14:32:00,63.0,57.0,-100.00,East,85,2.0,6.0,81,0.00,,,0.00,204.000000,,2013-08-17 18:32:00,
2013-08-17 14:42:00,63.0,57.0,-100.00,East,85,2.0,6.0,81,0.00,,,0.00,204.000000,,2013-08-17 18:42:00,
2013-08-17 14:52:00,63.0,57.0,-100.00,East,85,2.0,6.0,81,0.00,,,0.00,204.000000,,2013-08-17 18:52:00,
2013-08-17 15:01:00,63.0,57.0,-100.00,East,85,2.0,6.0,81,0.00,,,0.00,204.000000,,2013-08-17 19:01:00,
2013-08-17 15:42:00,62.0,57.0,-100.00,NE,50,2.0,5.0,85,0.00,,,0.00,101.000000,,2013-08-17 19:42:00,
2013-08-17 15:52:00,62.0,57.0,-100.00,NE,50,2.0,5.0,85,0.00,,,0.00,101.000000,,2013-08-17 19:52:00,
2013-08-17 16:02:00,62.0,57.0,-100.00,NE,50,2.0,5.0,85,0.00,,,0.00,101.000000,,2013-08-17 20:02:00,
2013-08-17 16:42:00,60.0,59.0,-100.00,NE,46,1.0,5.0,95,0.00,,,0.00,70.000000,,2013-08-17 20:42:00,
2013-08-17 16:52:00,60.0,59.0,-100.00,NE,46,1.0,5.0,95,0.00,,,0.00,70.000000,,2013-08-17 20:52:00,
2013-08-17 17:01:00,60.0,59.0,-100.00,NE,46,1.0,5.0,95,0.00,,,0.00,70.000000,,2013-08-17 21:01:00,
2013-08-17 17:42:00,61.0,60.0,-100.00,ENE,71,2.0,4.0,97,0.00,,,0.00,69.000000,,2013-08-17 21:42:00,
2013-08-17 17:54:00,61.0,60.0,-100.00,ENE,71,2.0,4.0,97,0.00,,,0.00,69.000000,,2013-08-17 21:54:00,
2013-08-17 18:03:00,61.0,60.0,-100.00,ENE,71,2.0,4.0,97,0.00,,,0.00,69.000000,,2013-08-17 22:03:00,
2013-08-17 18:42:00,61.0,60.0,-100.00,NNE,26,2.0,4.0,96,0.02,,,0.02,45.000000,,2013-08-17 22:42:00,
2013-08-17 18:52:00,61.0,60.0,-100.00,NNE,26,2.0,4.0,96,0.02,,,0.02,45.000000,,2013-08-17 22:52:00,
2013-08-17 19:02:00,61.0,60.0,-100.00,NNE,26,2.0,4.0,96,0.02,,,0.02,45.000000,,2013-08-17 23:02:00,
2013-08-17 19:42:00,60.0,59.0,-100.00,East,83,2.0,5.0,97,0.03,,,0.05,21.000000,,2013-08-17 23:42:00,
2013-08-17 19:52:00,60.0,59.0,-100.00,East,83,2.0,5.0,97,0.03,,,0.05,21.000000,,2013-08-17 23:52:00,
2013-08-17 20:01:00,60.0,59.0,-100.00,East,83,2.0,5.0,97,0.03,,,0.05,21.000000,,2013-08-18 00:01:00,
2013-08-17 20:42:00,60.0,59.0,-100.00,ENE,60,2.0,3.0,98,0.07,,,0.12,7.000000,,2013-08-18 00:42:00,
2013-08-17 20:52:00,60.0,59.0,-100.00,ENE,60,2.0,3.0,98,0.07,,,0.12,7.000000,,2013-08-18 00:52:00,
2013-08-17 21:01:00,60.0,59.0,-100.00,ENE,60,2.0,3.0,98,0.07,,,0.12,7.000000,,2013-08-18 01:01:00,
2013-08-17 21:42:00,59.0,58.0,-100.00,SW,217,2.0,6.0,98,0.04,,,0.16,0.000000,,2013-08-18 01:42:00,
2013-08-17 21:52:00,59.0,58.0,-100.00,SW,217,2.0,6.0,98,0.04,,,0.16,0.000000,,2013-08-18 01:52:00,
2013-08-17 22:02:00,59.0,58.0,-100.00,SW,217,2.0,6.0,98,0.04,,,0.16,0.000000,,2013-08-18 02:02:00,
2013-08-17 22:42:00,59.0,59.0,-100.00,WSW,244,1.0,5.0,99,0.07,,,0.23,0.000000,,2013-08-18 02:42:00,
2013-08-17 22:52:00,59.0,59.0,-100.00,WSW,244,1.0,5.0,99,0.07,,,0.23,0.000000,,2013-08-18 02:52:00,
2013-08-17 23:02:00,59.0,59.0,-100.00,WSW,244,1.0,5.0,99,0.07,,,0.23,0.000000,,2013-08-18 03:02:00,
2013-08-17 23:43:00,59.0,59.0,-100.00,ENE,69,1.0,2.0,99,0.00,,,0.23,0.000000,,2013-08-18 03:43:00,
2013-08-17 23:53:00,59.0,59.0,-100.00,ENE,69,1.0,2.0,99,0.00,,,0.23,0.000000,,2013-08-18 03:53:00,